CZ-3C DEB

基本信息
目录编号:
39342
目录名称:
CZ-3C DEB
国际标识:
2010-057G
轨道中心:
EARTH
物体状态:
在轨
发射日期:
2010-10-31 UTC
轨道信息
数据来源: 国际轨道数据
星历时间: 2026-07-12T10:15:29+0800
半长轴: 24920.265km
偏心率: 0.7208825
轨道倾角: 20.139°
近地点辐角: 175.566°
升交点赤经: 91.600°
平近点角: 356.226°
近地点: 577.545km
远地点: 36506.711km
周期: 652.512分钟
每日圈数: 2.206855
详细信息
发射场:
XSC
轨道高度:
LEO
数据来源:
AOE Integration Group
参考系:
TEME
时间系统:
UTC
历元类型:
SGP4
2D轨道图
3D轨道图
轨道高度分析图
轨道倾角分析图
轨道综合分析图
查看轨道综合分析图